Weather History for Durango, CO

Change the Weather History Date:

Wednesday, May 14, 2014

  Actual Average Record
Temperature  
Mean Temperature 42 °F 52 °F  
Max Temperature 62 °F 70 °F 85 °F (1976)
Min Temperature 22 °F 35 °F 22 °F (2014)
Degree Days  
Heating Degree Days 23 13  
Month to date heating degree days 259 203  
Since 1 July heating degree days 6621 6839  
Cooling Degree Days 0 0  
Month to date cooling degree days 0 0  
Year to date cooling degree days 0 0  
Moisture  
Dew Point 17 °F    
Average Humidity 53    
Maximum Humidity 88    
Minimum Humidity 17    
Precipitation  
Precipitation 0.00 in 0.03 in 0.37 in (1977)
Month to date precipitation 0.28 0.51  
Year to date precipitation 2.00 5.14  
Sea Level Pressure  
Sea Level Pressure 30.40 in    
Wind  
Wind Speed 6 mph (NW)    
Max Wind Speed 21 mph    
Max Gust Speed 25 mph    
Visibility 10 miles    
Events      
T = Trace of Precipitation, MM = Missing Value Source: NWS Daily Summary

Daily Weather History Graph

Daily Weather History Graph

Search for Another Location

Airport:

Trip Planner

Search our weather history database for the weather conditions in past years. The results will help you decide how hot, cold, wet, or windy it might be!

Date:

Astronomy

May. 14, 2014 Rise Set
Actual Time 6:03 AM MDT 8:11 PM MDT
Civil Twilight 5:34 AM MDT 8:40 PM MDT
Nautical Twilight 4:59 AM MDT 9:16 PM MDT
Astronomical Twilight 4:20 AM MDT 9:55 PM MDT
Moon 8:21 PM MDT (5/14) 6:03 AM MDT (5/14)
Length of Visible Light 15h 06m
Length of Day
14h 08m
Full, 100% of the Moon is Illuminated
May 14
Full
May 14
Full
May 21
Last Quarter
May 28
New
Jun 5
First Quarter

Hourly Weather History & Observations

Time (MDT) Temp. Windchill Dew Point Humidity Pressure Visibility Wind Dir Wind Speed Gust Speed Precip Events Conditions
12:53 AM 30.0 °F 25.2 °F 25.0 °F 82% 30.52 in 10.0 mi ENE 4.6 mph - N/A   Clear
2:53 AM 28.0 °F 22.8 °F 19.9 °F 72% 30.51 in 10.0 mi North 4.6 mph - N/A   Clear
3:53 AM 25.0 °F 20.7 °F 21.0 °F 85% 30.52 in 10.0 mi East 3.5 mph - N/A   Clear
4:53 AM 24.1 °F 19.7 °F 19.0 °F 81% 30.52 in 10.0 mi East 3.5 mph - N/A   Clear
5:53 AM 25.0 °F 16.3 °F 18.0 °F 75% 30.51 in 10.0 mi North 8.1 mph - N/A   Clear
6:53 AM 28.0 °F - 19.0 °F 69% 30.51 in 10.0 mi Calm Calm - N/A   Clear
7:53 AM 32.0 °F - 19.9 °F 61% 30.52 in 10.0 mi Calm Calm - N/A   Clear
9:53 AM 44.1 °F 42.5 °F 15.1 °F 31% 30.47 in 10.0 mi WSW 3.5 mph - N/A   Clear
10:53 AM 48.9 °F - 16.0 °F 27% 30.46 in 10.0 mi Calm Calm - N/A   Clear
11:53 AM 52.0 °F - 10.9 °F 19% 30.42 in 10.0 mi West 4.6 mph - N/A   Unknown
12:53 PM 55.0 °F - 12.9 °F 19% 30.39 in 10.0 mi Variable 5.8 mph - N/A   Clear
1:53 PM 57.0 °F - 12.9 °F 18% 30.35 in 10.0 mi SW 13.8 mph 21.9 mph N/A   Clear
3:53 PM 59.0 °F - 15.1 °F 18% 30.32 in 10.0 mi Variable 5.8 mph 19.6 mph N/A   Clear
4:53 PM 61.0 °F - 15.1 °F 17% 30.29 in 10.0 mi West 18.4 mph - N/A   Partly Cloudy
5:53 PM 59.0 °F - 15.1 °F 18% 30.29 in 10.0 mi SW 9.2 mph - N/A   Clear
6:53 PM 57.9 °F - 15.1 °F 19% 30.27 in 10.0 mi SSW 5.8 mph - N/A   Clear
7:53 PM 54.0 °F - 16.0 °F 22% 30.28 in 10.0 mi North 9.2 mph - N/A   Clear
9:53 PM 48.0 °F - 17.1 °F 29% 30.30 in 10.0 mi Variable 6.9 mph - N/A   Clear
10:53 PM 44.1 °F 38.1 °F 19.9 °F 38% 30.30 in 10.0 mi North 11.5 mph - N/A   Clear
11:53 PM 39.0 °F 32.8 °F 21.0 °F 49% 30.31 in 10.0 mi NNW 9.2 mph - N/A   Clear